Weather History for KDAG - July, 2013

Change the Weather History Date:

Monday, July 1, 2013

  Actual Average Record
Temperature  
Mean Temperature 100 °F -  
Max Temperature 114 °F 102 °F 114 °F (2013)
Min Temperature 88 °F 70 °F 55 °F (1997)
Cooling Degree Days 34    
Growing Degree Days 50 (Base 50)    
Moisture  
Dew Point 46 °F    
Average Humidity 17    
Maximum Humidity 23    
Minimum Humidity 11    
Precipitation  
Precipitation 0.00 in - - ()
Sea Level Pressure  
Sea Level Pressure 29.73 in    
Wind  
Wind Speed 11 mph (WSW)    
Max Wind Speed 20 mph    
Max Gust Speed 24 mph    
Visibility 10 miles    
Events Thunderstorm    
Averages and records for this station are not official NWS values.
T = Trace of Precipitation, MM = Missing Value Source: NWS Daily Summary

Daily Weather History Graph

Daily Weather History Graph

Search for Another Location

Airport or City:

Trip Planner

Search our weather history database for the weather conditions in past years. The results will help you decide how hot, cold, wet, or windy it might be!

Date:

Astronomy

Jul. 01, 2013 Rise Set
Actual Time 5:37 AM PDT 8:04 PM PDT
Civil Twilight 5:07 AM PDT 8:34 PM PDT
Nautical Twilight 4:31 AM PDT 9:10 PM PDT
Astronomical Twilight 3:51 AM PDT 9:50 PM PDT
Moon 1:00 AM PDT (7/1) 2:31 PM PDT (7/1)
Length of Visible Light 15h 26m
Length of Day
14h 27m
Waning Crescent, 34% of the Moon is Illuminated
Jul 1
Waning Crescent
Jul 8
New
Jul 15
First Quarter
Jul 22
Full
Jul 29
Last Quarter

Hourly Weather History & Observations

Time (PDT) Temp. Dew Point Humidity Pressure Visibility Wind Dir Wind Speed Gust Speed Precip Events Conditions
12:50 AM 91.0 °F 46.0 °F 21% 29.68 in 10.0 mi WNW 11.5 mph - N/A   Clear
1:50 AM 89.1 °F 45.0 °F 22% 29.68 in 10.0 mi West 10.4 mph - N/A   Clear
2:50 AM 88.0 °F 46.0 °F 23% 29.68 in 10.0 mi WSW 10.4 mph - N/A   Clear
3:50 AM 90.0 °F 46.0 °F 22% 29.73 in 10.0 mi SW 3.5 mph - N/A   Clear
4:50 AM 90.0 °F 46.9 °F 23% 29.72 in 10.0 mi West 9.2 mph - N/A   Clear
5:09 AM 89.6 °F 46.4 °F 22% 29.82 in 10.0 mi West 15.0 mph - N/A   Clear
5:50 AM 89.1 °F 46.0 °F 22% 29.72 in 10.0 mi West 11.5 mph - N/A   Clear
6:50 AM 90.0 °F 46.0 °F 22% 29.75 in 10.0 mi SSW 8.1 mph - N/A   Clear
7:50 AM 90.0 °F 46.9 °F 23% 29.75 in 10.0 mi West 12.7 mph - N/A   Scattered Clouds
8:50 AM 93.0 °F 48.0 °F 21% 29.77 in 10.0 mi WSW 10.4 mph - N/A   Clear
9:50 AM 97.0 °F 46.0 °F 18% 29.76 in 10.0 mi WSW 9.2 mph - N/A   Clear
10:50 AM 102.0 °F 46.9 °F 16% 29.76 in 10.0 mi West 15.0 mph - N/A   Clear
11:50 AM 105.1 °F 46.0 °F 14% 29.75 in 10.0 mi West 6.9 mph - N/A   Clear
12:50 PM 108.0 °F 45.0 °F 12% 29.74 in 10.0 mi Variable 4.6 mph - N/A   Clear
1:50 PM 108.0 °F 46.0 °F 13% 29.72 in 10.0 mi Variable 3.5 mph - N/A   Clear
2:50 PM 109.0 °F 48.0 °F 13% 29.70 in 10.0 mi SE 3.5 mph - N/A   Clear
3:50 PM 111.9 °F 48.0 °F 12% 29.68 in 10.0 mi Variable 5.8 mph - N/A   Clear
4:50 PM 111.9 °F 46.0 °F 11% 29.67 in 10.0 mi WSW 15.0 mph 20.7 mph N/A   Clear
5:50 PM 109.0 °F 46.0 °F 12% 29.66 in 10.0 mi SW 15.0 mph 24.2 mph N/A   Clear
6:30 PM 107.6 °F 46.4 °F 13% 29.77 in 10.0 mi SW 19.6 mph - N/A Thunderstorm Clear
6:45 PM 107.6 °F 46.4 °F 13% 29.77 in 10.0 mi SW 13.8 mph - N/A   Clear
6:50 PM 108.0 °F 46.0 °F 13% 29.67 in 10.0 mi WSW 16.1 mph - N/A   Clear
7:50 PM 102.9 °F 46.9 °F 15% 29.70 in 10.0 mi SW 11.5 mph - N/A   Clear
8:50 PM 99.0 °F 46.0 °F 16% 29.73 in 10.0 mi WSW 12.7 mph - N/A   Clear
9:50 PM 96.1 °F 44.1 °F 17% 29.75 in 10.0 mi West 13.8 mph - N/A   Clear
10:50 PM 93.9 °F 43.0 °F 17% 29.76 in 10.0 mi West 12.7 mph - N/A   Clear
11:50 PM 90.0 °F 41.0 °F 18% 29.76 in 10.0 mi WNW 15.0 mph - N/A   Clear